User: anonymous   Login
Location: Muenchen
(48.1800°N, 11.5800°E)
Time: 03:33:18
(UTC+02:00)
Language:

Cosmos 2233 Rocket - Orbit

View from above orbital plane
View from above orbital plane
View from above satellite
View from above satellite

Ground track
Ground track

The orbit data is extracted from the following two-line orbital elements,

1 22488U 93008B   17112.65661953 +.00000176 +00000-0 +16090-3 0  9990
2 22488 082.9394 119.7692 0026038 023.9711 113.1040 13.77714974216322
Epoch (UTC): 22 April 2017 15:45:31
Eccentricity: 0.0026038
inclination: 82.9394°
perigee height: 953 km
apogee height: 991 km
right ascension of ascending node: 119.7692°
argument of perigee: 23.9711°
revolutions per day: 13.77714974
mean anomaly at epoch: 113.1040°
orbit number at epoch: 21632

The dashed part of the orbit path shows where the satellite is in the earth's shadow,  

DLR